Year,Month,Day,Hour,Minute,Value (Times are PST for temperature in C)
2012,05,26,00,00,14.80
2012,05,26,00,01,14.90
2012,05,26,00,02,15.00
2012,05,26,00,03,15.00
2012,05,26,00,04,15.00
2012,05,26,00,05,15.00
2012,05,26,00,06,15.00
2012,05,26,00,07,15.00
2012,05,26,00,08,15.00
2012,05,26,00,09,15.00
2012,05,26,00,10,15.00
2012,05,26,00,11,14.90
2012,05,26,00,12,14.90
2012,05,26,00,13,14.80
2012,05,26,00,14,14.80
2012,05,26,00,15,14.70
2012,05,26,00,16,14.70
2012,05,26,00,17,14.60
2012,05,26,00,18,14.50
2012,05,26,00,19,14.50
2012,05,26,00,20,14.40
2012,05,26,00,21,14.40
2012,05,26,00,22,14.30
2012,05,26,00,23,14.30
2012,05,26,00,24,14.30
2012,05,26,00,25,14.20
2012,05,26,00,26,14.20
2012,05,26,00,27,14.20
2012,05,26,00,28,14.20
2012,05,26,00,29,14.10
2012,05,26,00,30,14.10
2012,05,26,00,31,14.10
2012,05,26,00,32,14.10
2012,05,26,00,33,14.00
2012,05,26,00,34,14.00
2012,05,26,00,35,13.90
2012,05,26,00,36,13.90
2012,05,26,00,37,13.80
2012,05,26,00,38,13.80
2012,05,26,00,39,13.70
2012,05,26,00,40,13.70
2012,05,26,00,41,13.80
2012,05,26,00,42,13.80
2012,05,26,00,43,13.80
2012,05,26,00,44,13.80
2012,05,26,00,45,13.80
2012,05,26,00,46,13.80
2012,05,26,00,47,13.80
2012,05,26,00,48,13.80
2012,05,26,00,49,13.80
2012,05,26,00,50,13.80
2012,05,26,00,51,13.70
2012,05,26,00,52,13.70
2012,05,26,00,53,13.80
2012,05,26,00,54,13.80
2012,05,26,00,55,13.80
2012,05,26,00,56,13.80
2012,05,26,00,57,13.80
2012,05,26,00,58,13.80
2012,05,26,00,59,13.80
2012,05,26,01,00,13.80
2012,05,26,01,01,13.80
2012,05,26,01,02,13.70
2012,05,26,01,03,13.70
2012,05,26,01,04,13.60
2012,05,26,01,05,13.60
2012,05,26,01,06,13.60
2012,05,26,01,07,13.60
2012,05,26,01,08,13.60
2012,05,26,01,09,13.60
2012,05,26,01,10,13.60
2012,05,26,01,11,13.60
2012,05,26,01,12,13.50
2012,05,26,01,13,13.60
2012,05,26,01,14,13.60
2012,05,26,01,15,13.60
2012,05,26,01,16,13.50
2012,05,26,01,17,13.50
2012,05,26,01,18,13.50
2012,05,26,01,19,13.40
2012,05,26,01,20,13.30
2012,05,26,01,21,13.30
2012,05,26,01,22,13.30
2012,05,26,01,23,13.20
2012,05,26,01,24,13.20
2012,05,26,01,25,13.20
2012,05,26,01,26,13.10
2012,05,26,01,27,13.10
2012,05,26,01,28,13.00
2012,05,26,01,29,12.90
2012,05,26,01,30,12.90
2012,05,26,01,31,12.80
2012,05,26,01,32,12.80
2012,05,26,01,33,12.70
2012,05,26,01,34,12.60
2012,05,26,01,35,12.60
2012,05,26,01,36,12.50
2012,05,26,01,37,12.40
2012,05,26,01,38,12.30
2012,05,26,01,39,12.20
2012,05,26,01,40,12.10
2012,05,26,01,41,12.00
2012,05,26,01,42,12.00
2012,05,26,01,43,11.90
2012,05,26,01,44,11.80
2012,05,26,01,45,11.80
2012,05,26,01,46,11.70
2012,05,26,01,47,11.70
2012,05,26,01,48,11.60
2012,05,26,01,49,11.60
2012,05,26,01,50,11.50
2012,05,26,01,51,11.50
2012,05,26,01,52,11.50
2012,05,26,01,53,11.50
2012,05,26,01,54,11.50
2012,05,26,01,55,11.40
2012,05,26,01,56,11.40
2012,05,26,01,57,11.40
2012,05,26,01,58,11.40
2012,05,26,01,59,11.40
2012,05,26,02,00,11.30
2012,05,26,02,01,11.30
2012,05,26,02,02,11.30
2012,05,26,02,03,11.30
2012,05,26,02,04,11.30
2012,05,26,02,05,11.20
2012,05,26,02,06,11.20
2012,05,26,02,07,11.20
2012,05,26,02,08,11.10
2012,05,26,02,09,11.10
2012,05,26,02,10,11.00
2012,05,26,02,11,11.00
2012,05,26,02,12,10.90
2012,05,26,02,13,10.80
2012,05,26,02,14,10.80
2012,05,26,02,15,10.70
2012,05,26,02,16,10.70
2012,05,26,02,17,10.60
2012,05,26,02,18,10.60
2012,05,26,02,19,10.50
2012,05,26,02,20,10.50
2012,05,26,02,21,10.50
2012,05,26,02,22,10.40
2012,05,26,02,23,10.40
2012,05,26,02,24,10.40
2012,05,26,02,25,10.40
2012,05,26,02,26,10.40
2012,05,26,02,27,10.40
2012,05,26,02,28,10.40
2012,05,26,02,29,10.40
2012,05,26,02,30,10.40
2012,05,26,02,31,10.40
2012,05,26,02,32,10.50
2012,05,26,02,33,10.50
2012,05,26,02,34,10.50
2012,05,26,02,35,10.60
2012,05,26,02,36,10.60
2012,05,26,02,37,10.60
2012,05,26,02,38,10.60
2012,05,26,02,39,10.70
2012,05,26,02,40,10.70
2012,05,26,02,41,10.70
2012,05,26,02,42,10.70
2012,05,26,02,43,10.60
2012,05,26,02,44,10.60
2012,05,26,02,45,10.60
2012,05,26,02,46,10.60
2012,05,26,02,47,10.60
2012,05,26,02,48,10.50
2012,05,26,02,49,10.50
2012,05,26,02,50,10.50
2012,05,26,02,51,10.50
2012,05,26,02,52,10.40
2012,05,26,02,53,10.40
2012,05,26,02,54,10.40
2012,05,26,02,55,10.40
2012,05,26,02,56,10.30
2012,05,26,02,57,10.30
2012,05,26,02,58,10.30
2012,05,26,02,59,10.30
2012,05,26,03,00,10.20
2012,05,26,03,01,10.20
2012,05,26,03,02,10.20
2012,05,26,03,06,10.10
2012,05,26,03,07,10.10
2012,05,26,03,08,10.10
2012,05,26,03,09,10.10
2012,05,26,03,10,10.00
2012,05,26,03,11,10.00
2012,05,26,03,12,10.00
2012,05,26,03,13,10.00
2012,05,26,03,14,10.10
2012,05,26,03,15,10.10
2012,05,26,03,16,10.10
2012,05,26,03,17,10.10
2012,05,26,03,18,10.10
2012,05,26,03,19,10.10
2012,05,26,03,20,10.10
2012,05,26,03,21,10.10
2012,05,26,03,22,10.10
2012,05,26,03,23,10.20
2012,05,26,03,24,10.20
2012,05,26,03,25,10.20
2012,05,26,03,26,10.20
2012,05,26,03,27,10.30
2012,05,26,03,28,10.30
2012,05,26,03,29,10.30
2012,05,26,03,30,10.30
2012,05,26,03,31,10.40
2012,05,26,03,32,10.40
2012,05,26,03,33,10.50
2012,05,26,03,34,10.50
2012,05,26,03,35,10.60
2012,05,26,03,36,10.60
2012,05,26,03,37,10.60
2012,05,26,03,38,10.70
2012,05,26,03,39,10.80
2012,05,26,03,40,10.90
2012,05,26,03,41,10.90
2012,05,26,03,42,11.00
2012,05,26,03,43,11.00
2012,05,26,03,44,11.00
2012,05,26,03,45,11.00
2012,05,26,03,46,11.00
2012,05,26,03,47,11.00
2012,05,26,03,48,10.90
2012,05,26,03,49,10.90
2012,05,26,03,50,10.90
2012,05,26,03,51,11.00
2012,05,26,03,52,11.00
2012,05,26,03,53,11.00
2012,05,26,03,54,11.00
2012,05,26,03,55,11.00
2012,05,26,03,56,11.00
2012,05,26,03,57,11.00
2012,05,26,03,58,11.00
2012,05,26,03,59,11.00
2012,05,26,04,00,11.00
2012,05,26,04,01,11.00
2012,05,26,04,02,11.00
2012,05,26,04,03,11.00
2012,05,26,04,04,11.00
2012,05,26,04,05,11.20
2012,05,26,04,06,11.40
2012,05,26,04,07,11.60
2012,05,26,04,08,11.70
2012,05,26,04,09,11.80
2012,05,26,04,10,11.80
2012,05,26,04,11,11.80
2012,05,26,04,12,11.80
2012,05,26,04,13,11.80
2012,05,26,04,14,11.80
2012,05,26,04,15,11.80
2012,05,26,04,16,11.80
2012,05,26,04,17,11.80
2012,05,26,04,18,11.80
2012,05,26,04,19,11.70
2012,05,26,04,20,11.70
2012,05,26,04,21,11.70
2012,05,26,04,22,11.70
2012,05,26,04,23,11.70
2012,05,26,04,24,11.70
2012,05,26,04,25,11.70
2012,05,26,04,26,11.60
2012,05,26,04,27,11.60
2012,05,26,04,28,11.60
2012,05,26,04,29,11.60
2012,05,26,04,30,11.50
2012,05,26,04,31,11.50
2012,05,26,04,32,11.40
2012,05,26,04,33,11.40
2012,05,26,04,34,11.30
2012,05,26,04,35,11.30
2012,05,26,04,36,11.30
2012,05,26,04,37,11.30
2012,05,26,04,38,11.30
2012,05,26,04,39,11.30
2012,05,26,04,40,11.20
2012,05,26,04,41,11.20
2012,05,26,04,42,11.20
2012,05,26,04,43,11.20
2012,05,26,04,44,11.20
2012,05,26,04,45,11.20
2012,05,26,04,46,11.20
2012,05,26,04,47,11.20
2012,05,26,04,48,11.20
2012,05,26,04,49,11.20
2012,05,26,04,50,11.20
2012,05,26,04,51,11.20
2012,05,26,04,52,11.10
2012,05,26,04,53,11.10
2012,05,26,04,54,11.10
2012,05,26,04,55,11.10
2012,05,26,04,56,11.10
2012,05,26,04,57,11.10
2012,05,26,04,58,11.00
2012,05,26,04,59,11.00
2012,05,26,05,00,11.00
2012,05,26,05,01,10.90
2012,05,26,05,02,10.90
2012,05,26,05,03,10.90
2012,05,26,05,04,10.80
2012,05,26,05,05,10.80
2012,05,26,05,06,10.80
2012,05,26,05,07,10.90
2012,05,26,05,08,10.90
2012,05,26,05,09,10.90
2012,05,26,05,10,10.80
2012,05,26,05,11,10.80
2012,05,26,05,12,10.80
2012,05,26,05,13,10.80
2012,05,26,05,14,10.80
2012,05,26,05,15,10.80
2012,05,26,05,16,10.70
2012,05,26,05,17,10.70
2012,05,26,05,18,10.60
2012,05,26,05,19,10.50
2012,05,26,05,20,10.50
2012,05,26,05,21,10.40
2012,05,26,05,22,10.30
2012,05,26,05,23,10.30
2012,05,26,05,24,10.20
2012,05,26,05,25,10.20
2012,05,26,05,26,10.20
2012,05,26,05,27,10.10
2012,05,26,05,28,10.10
2012,05,26,05,29,10.10
2012,05,26,05,30,10.00
2012,05,26,05,31,10.00
2012,05,26,05,32,9.90
2012,05,26,05,33,9.90
2012,05,26,05,34,9.80
2012,05,26,05,35,9.80
2012,05,26,05,36,9.80
2012,05,26,05,37,9.70
2012,05,26,05,38,9.70
2012,05,26,05,39,9.70
2012,05,26,05,40,9.70
2012,05,26,05,41,9.60
2012,05,26,05,42,9.60
2012,05,26,05,43,9.60
2012,05,26,05,44,9.60
2012,05,26,05,45,9.60
2012,05,26,05,46,9.60
2012,05,26,05,47,9.60
2012,05,26,05,48,9.50
2012,05,26,05,49,9.50
2012,05,26,05,50,9.50
2012,05,26,05,51,9.50
2012,05,26,05,52,9.50
2012,05,26,05,53,9.50
2012,05,26,05,54,9.50
2012,05,26,05,55,9.50
2012,05,26,05,56,9.50
2012,05,26,05,57,9.60
2012,05,26,05,58,9.60
2012,05,26,05,59,9.60
2012,05,26,06,00,9.70
2012,05,26,06,01,9.70
2012,05,26,06,02,9.80
2012,05,26,06,03,9.80
2012,05,26,06,04,9.90
2012,05,26,06,05,10.00
2012,05,26,06,06,10.00
2012,05,26,06,07,10.10
2012,05,26,06,08,10.20
2012,05,26,06,09,10.20
2012,05,26,06,10,10.30
2012,05,26,06,11,10.30
2012,05,26,06,12,10.40
2012,05,26,06,13,10.40
2012,05,26,06,14,10.50
2012,05,26,06,15,10.60
2012,05,26,06,16,10.60
2012,05,26,06,17,10.60
2012,05,26,06,18,10.70
2012,05,26,06,19,10.70
2012,05,26,06,20,10.70
2012,05,26,06,21,10.70
2012,05,26,06,22,10.80
2012,05,26,06,23,10.80
2012,05,26,06,24,10.80
2012,05,26,06,25,10.80
2012,05,26,06,26,10.90
2012,05,26,06,27,10.90
2012,05,26,06,28,11.00
2012,05,26,06,29,11.00
2012,05,26,06,30,11.10
2012,05,26,06,31,11.20
2012,05,26,06,32,11.20
2012,05,26,06,33,11.20
2012,05,26,06,34,11.30
2012,05,26,06,35,11.30
2012,05,26,06,36,11.30
2012,05,26,06,37,11.40
2012,05,26,06,38,11.40
2012,05,26,06,39,11.40
2012,05,26,06,40,11.40
2012,05,26,06,41,11.50
2012,05,26,06,42,11.50
2012,05,26,06,43,11.50
2012,05,26,06,44,11.60
2012,05,26,06,45,11.60
2012,05,26,06,46,11.60
2012,05,26,06,47,11.60
2012,05,26,06,48,11.60
2012,05,26,06,49,11.70
2012,05,26,06,50,11.70
2012,05,26,06,51,11.80
2012,05,26,06,52,11.80
2012,05,26,06,53,11.90
2012,05,26,06,54,11.90
2012,05,26,06,55,12.00
2012,05,26,06,56,12.00
2012,05,26,06,57,12.10
2012,05,26,06,58,12.20
2012,05,26,06,59,12.20
2012,05,26,07,00,12.30
2012,05,26,07,01,12.30
2012,05,26,07,02,12.40
2012,05,26,07,03,12.40
2012,05,26,07,04,12.50
2012,05,26,07,05,12.50
2012,05,26,07,06,12.60
2012,05,26,07,07,12.60
2012,05,26,07,08,12.60
2012,05,26,07,09,12.70
2012,05,26,07,10,12.70
2012,05,26,07,11,12.70
2012,05,26,07,12,12.80
2012,05,26,07,13,12.80
2012,05,26,07,14,12.80
2012,05,26,07,15,12.90
2012,05,26,07,16,12.90
2012,05,26,07,17,12.90
2012,05,26,07,18,13.00
2012,05,26,07,19,13.00
2012,05,26,07,20,13.00
2012,05,26,07,21,13.10
2012,05,26,07,22,13.10
2012,05,26,07,23,13.10
2012,05,26,07,24,13.10
2012,05,26,07,25,13.20
2012,05,26,07,26,13.20
2012,05,26,07,27,13.20
2012,05,26,07,28,13.30
2012,05,26,07,29,13.30
2012,05,26,07,30,13.40
2012,05,26,07,31,13.40
2012,05,26,07,32,13.40
2012,05,26,07,33,13.50
2012,05,26,07,34,13.50
2012,05,26,07,35,13.60
2012,05,26,07,36,13.60
2012,05,26,07,37,13.70
2012,05,26,07,38,13.70
2012,05,26,07,39,13.80
2012,05,26,07,40,13.80
2012,05,26,07,41,13.90
2012,05,26,07,42,13.90
2012,05,26,07,43,14.00
2012,05,26,07,44,14.10
2012,05,26,07,45,14.20
2012,05,26,07,46,14.30
2012,05,26,07,47,14.40
2012,05,26,07,48,14.60
2012,05,26,07,49,14.70
2012,05,26,07,50,14.80
2012,05,26,07,51,14.90
2012,05,26,07,52,15.00
2012,05,26,07,53,15.00
2012,05,26,07,54,15.00
2012,05,26,07,55,15.00
2012,05,26,07,56,15.10
2012,05,26,07,57,15.20
2012,05,26,07,58,15.30
2012,05,26,07,59,15.30
2012,05,26,08,00,15.40
2012,05,26,08,01,15.50
2012,05,26,08,02,15.60
2012,05,26,08,03,15.70
2012,05,26,08,04,15.70
2012,05,26,08,05,15.80
2012,05,26,08,06,15.90
2012,05,26,08,07,16.00
2012,05,26,08,08,16.10
2012,05,26,08,09,16.20
2012,05,26,08,10,16.30
2012,05,26,08,11,16.40
2012,05,26,08,12,16.50
2012,05,26,08,13,16.60
2012,05,26,08,14,16.70
2012,05,26,08,15,16.80
2012,05,26,08,16,16.90
2012,05,26,08,17,17.10
2012,05,26,08,18,17.20
2012,05,26,08,19,17.30
2012,05,26,08,20,17.30
2012,05,26,08,21,17.40
2012,05,26,08,22,17.50
2012,05,26,08,23,17.60
2012,05,26,08,24,17.60
2012,05,26,08,25,17.70
2012,05,26,08,26,17.80
2012,05,26,08,27,17.90
2012,05,26,08,28,18.00
2012,05,26,08,29,18.10
2012,05,26,08,30,18.10
2012,05,26,08,31,18.10
2012,05,26,08,32,18.20
2012,05,26,08,33,18.20
2012,05,26,08,34,18.30
2012,05,26,08,35,18.30
2012,05,26,08,36,18.30
2012,05,26,08,37,18.30
2012,05,26,08,38,18.30
2012,05,26,08,39,18.30
2012,05,26,08,40,18.30
2012,05,26,08,41,18.40
2012,05,26,08,42,18.40
2012,05,26,08,43,18.40
2012,05,26,08,44,18.40
2012,05,26,08,45,18.40
2012,05,26,08,46,18.40
2012,05,26,08,47,18.40
2012,05,26,08,48,18.40
2012,05,26,08,49,18.50
2012,05,26,08,50,18.50
2012,05,26,08,51,18.50
2012,05,26,08,52,18.60
2012,05,26,08,53,18.60
2012,05,26,08,54,18.60
2012,05,26,08,55,18.70
2012,05,26,08,56,18.70
2012,05,26,08,57,18.80
2012,05,26,08,58,18.80
2012,05,26,08,59,18.90
2012,05,26,09,00,19.00
2012,05,26,09,01,19.10
2012,05,26,09,02,19.10
2012,05,26,09,03,19.10
2012,05,26,09,04,19.20
2012,05,26,09,05,19.20
2012,05,26,09,06,19.20
2012,05,26,09,07,19.30
2012,05,26,09,08,19.30
2012,05,26,09,09,19.30
2012,05,26,09,10,19.40
2012,05,26,09,11,19.40
2012,05,26,09,12,19.40
2012,05,26,09,13,19.50
2012,05,26,09,14,19.60
2012,05,26,09,15,19.60
2012,05,26,09,16,19.70
2012,05,26,09,17,19.70
2012,05,26,09,18,19.80
2012,05,26,09,19,19.80
2012,05,26,09,20,19.80
2012,05,26,09,21,19.80
2012,05,26,09,22,19.90
2012,05,26,09,23,19.90
2012,05,26,09,24,19.90
2012,05,26,09,25,19.90
2012,05,26,09,26,20.00
2012,05,26,09,27,20.10
2012,05,26,09,28,20.30
2012,05,26,09,29,20.30
2012,05,26,09,30,20.40
2012,05,26,09,31,20.40
2012,05,26,09,32,20.40
2012,05,26,09,33,20.50
2012,05,26,09,34,20.60
2012,05,26,09,35,20.70
2012,05,26,09,36,20.80
2012,05,26,09,37,20.80
2012,05,26,09,38,20.80
2012,05,26,09,39,20.80
2012,05,26,09,40,20.90
2012,05,26,09,41,20.90
2012,05,26,09,42,21.00
2012,05,26,09,43,21.00
2012,05,26,09,44,21.10
2012,05,26,09,45,21.10
2012,05,26,09,46,21.20
2012,05,26,09,47,21.20
2012,05,26,09,48,21.10
2012,05,26,09,49,21.00
2012,05,26,09,50,20.90
2012,05,26,09,51,20.90
2012,05,26,09,52,20.90
2012,05,26,09,53,21.00
2012,05,26,09,54,21.00
2012,05,26,09,55,21.10
2012,05,26,09,56,21.10
2012,05,26,09,57,21.20
2012,05,26,09,58,21.30
2012,05,26,09,59,21.30
2012,05,26,10,00,21.30
2012,05,26,10,01,21.30
2012,05,26,10,02,21.20
2012,05,26,10,03,21.20
2012,05,26,10,04,21.20
2012,05,26,10,05,21.20
2012,05,26,10,06,21.20
2012,05,26,10,07,21.20
2012,05,26,10,08,21.30
2012,05,26,10,09,21.30
2012,05,26,10,10,21.30
2012,05,26,10,11,21.30
2012,05,26,10,12,21.30
2012,05,26,10,13,21.20
2012,05,26,10,14,21.10
2012,05,26,10,15,21.10
2012,05,26,10,16,21.10
2012,05,26,10,17,21.00
2012,05,26,10,18,20.90
2012,05,26,10,19,20.90
2012,05,26,10,20,20.90
2012,05,26,10,21,20.90
2012,05,26,10,22,20.90
2012,05,26,10,23,20.90
2012,05,26,10,24,21.00
2012,05,26,10,25,21.10
2012,05,26,10,26,21.10
2012,05,26,10,27,21.10
2012,05,26,10,28,21.10
2012,05,26,10,29,21.10
2012,05,26,10,30,21.10
2012,05,26,10,31,21.20
2012,05,26,10,32,21.30
2012,05,26,10,33,21.30
2012,05,26,10,34,21.40
2012,05,26,10,35,21.40
2012,05,26,10,36,21.50
2012,05,26,10,37,21.70
2012,05,26,10,38,21.80
2012,05,26,10,39,21.90
2012,05,26,10,40,21.90
2012,05,26,10,41,22.00
2012,05,26,10,42,22.00
2012,05,26,10,43,22.00
2012,05,26,10,44,22.10
2012,05,26,10,45,22.10
2012,05,26,10,46,22.20
2012,05,26,10,47,22.20
2012,05,26,10,48,22.20
2012,05,26,10,49,22.30
2012,05,26,10,50,22.40
2012,05,26,10,51,22.40
2012,05,26,10,52,22.50
2012,05,26,10,53,22.50
2012,05,26,10,54,22.40
2012,05,26,10,55,22.50
2012,05,26,10,56,22.50
2012,05,26,10,57,22.40
2012,05,26,10,58,22.40
2012,05,26,10,59,22.30
2012,05,26,11,00,22.30
2012,05,26,11,01,22.30
2012,05,26,11,02,22.40
2012,05,26,11,03,22.40
2012,05,26,11,04,22.40
2012,05,26,11,05,22.40
2012,05,26,11,06,22.50
2012,05,26,11,07,22.60
2012,05,26,11,08,22.70
2012,05,26,11,09,22.60
2012,05,26,11,10,22.50
2012,05,26,11,11,22.40
2012,05,26,11,12,22.40
2012,05,26,11,13,22.40
2012,05,26,11,14,22.40
2012,05,26,11,15,22.30
2012,05,26,11,16,22.30
2012,05,26,11,17,22.30
2012,05,26,11,18,22.30
2012,05,26,11,19,22.40
2012,05,26,11,20,22.50
2012,05,26,11,21,22.60
2012,05,26,11,22,22.80
2012,05,26,11,23,22.80
2012,05,26,11,24,22.90
2012,05,26,11,25,22.90
2012,05,26,11,26,23.00
2012,05,26,11,27,23.00
2012,05,26,11,28,23.00
2012,05,26,11,29,23.10
2012,05,26,11,30,23.20
2012,05,26,11,31,23.30
2012,05,26,11,32,23.30
2012,05,26,11,33,23.20
2012,05,26,11,34,23.20
2012,05,26,11,35,23.10
2012,05,26,11,36,23.00
2012,05,26,11,37,22.80
2012,05,26,11,38,22.70
2012,05,26,11,39,22.60
2012,05,26,11,40,22.60
2012,05,26,11,41,22.60
2012,05,26,11,42,22.70
2012,05,26,11,43,22.70
2012,05,26,11,44,22.70
2012,05,26,11,45,22.70
2012,05,26,11,46,22.80
2012,05,26,11,47,22.90
2012,05,26,11,48,22.90
2012,05,26,11,49,22.90
2012,05,26,11,50,22.80
2012,05,26,11,51,22.70
2012,05,26,11,52,22.70
2012,05,26,11,53,22.70
2012,05,26,11,54,22.70
2012,05,26,11,55,22.70
2012,05,26,11,56,22.80
2012,05,26,11,57,22.80
2012,05,26,11,58,22.80
2012,05,26,11,59,22.80
2012,05,26,12,00,22.80
2012,05,26,12,01,22.90
2012,05,26,12,02,23.00
2012,05,26,12,03,23.10
2012,05,26,12,04,23.10
2012,05,26,12,05,23.10
2012,05,26,12,06,23.10
2012,05,26,12,07,23.20
2012,05,26,12,08,23.10
2012,05,26,12,09,23.10
2012,05,26,12,10,23.10
2012,05,26,12,11,23.10
2012,05,26,12,12,23.10
2012,05,26,12,13,23.10
2012,05,26,12,14,23.00
2012,05,26,12,15,23.00
2012,05,26,12,16,23.00
2012,05,26,12,17,23.10
2012,05,26,12,18,23.30
2012,05,26,12,19,23.50
2012,05,26,12,20,23.60
2012,05,26,12,21,23.70
2012,05,26,12,22,23.70
2012,05,26,12,23,23.80
2012,05,26,12,24,23.90
2012,05,26,12,25,24.00
2012,05,26,12,26,24.00
2012,05,26,12,27,24.10
2012,05,26,12,28,24.10
2012,05,26,12,29,24.10
2012,05,26,12,30,24.20
2012,05,26,12,31,24.10
2012,05,26,12,32,24.00
2012,05,26,12,33,23.90
2012,05,26,12,34,23.80
2012,05,26,12,35,23.70
2012,05,26,12,36,23.70
2012,05,26,12,37,23.60
2012,05,26,12,38,23.70
2012,05,26,12,39,23.80
2012,05,26,12,40,23.80
2012,05,26,12,41,23.70
2012,05,26,12,42,23.70
2012,05,26,12,43,23.70
2012,05,26,12,44,23.70
2012,05,26,12,45,23.70
2012,05,26,12,46,23.70
2012,05,26,12,47,23.70
2012,05,26,12,48,23.70
2012,05,26,12,49,23.80
2012,05,26,12,50,23.90
2012,05,26,12,51,23.90
2012,05,26,12,52,23.90
2012,05,26,12,53,23.90
2012,05,26,12,54,23.90
2012,05,26,12,55,24.00
2012,05,26,12,56,24.10
2012,05,26,12,57,24.20
2012,05,26,12,58,24.20
2012,05,26,12,59,24.20
2012,05,26,13,00,24.10
2012,05,26,13,01,24.10
2012,05,26,13,02,24.10
2012,05,26,13,03,24.10
2012,05,26,13,04,24.10
2012,05,26,13,05,24.20
2012,05,26,13,06,24.20
2012,05,26,13,07,24.20
2012,05,26,13,08,24.10
2012,05,26,13,09,23.90
2012,05,26,13,10,23.90
2012,05,26,13,11,23.80
2012,05,26,13,12,23.80
2012,05,26,13,13,23.80
2012,05,26,13,14,23.90
2012,05,26,13,15,23.90
2012,05,26,13,16,23.80
2012,05,26,13,17,23.80
2012,05,26,13,18,23.90
2012,05,26,13,19,23.90
2012,05,26,13,20,23.90
2012,05,26,13,21,24.10
2012,05,26,13,22,24.20
2012,05,26,13,23,24.20
2012,05,26,13,24,24.30
2012,05,26,13,25,24.40
2012,05,26,13,26,24.40
2012,05,26,13,27,24.30
2012,05,26,13,28,24.40
2012,05,26,13,29,24.50
2012,05,26,13,30,24.60
2012,05,26,13,31,24.60
2012,05,26,13,32,24.60
2012,05,26,13,33,24.60
2012,05,26,13,34,24.70
2012,05,26,13,35,24.80
2012,05,26,13,36,24.90
2012,05,26,13,37,25.00
2012,05,26,13,38,25.10
2012,05,26,13,39,25.10
2012,05,26,13,40,25.10
2012,05,26,13,41,25.10
2012,05,26,13,42,25.10
2012,05,26,13,43,25.20
2012,05,26,13,44,25.20
2012,05,26,13,45,25.10
2012,05,26,13,46,25.00
2012,05,26,13,47,25.00
2012,05,26,13,48,25.00
2012,05,26,13,49,25.00
2012,05,26,13,50,25.10
2012,05,26,13,51,25.10
2012,05,26,13,52,25.10
2012,05,26,13,53,25.10
2012,05,26,13,54,25.20
2012,05,26,13,55,25.30
2012,05,26,13,56,25.20
2012,05,26,13,57,25.20
2012,05,26,13,58,25.10
2012,05,26,13,59,25.00
2012,05,26,14,00,24.90
2012,05,26,14,01,24.90
2012,05,26,14,02,24.90
2012,05,26,14,03,24.90
2012,05,26,14,04,24.90
2012,05,26,14,05,25.00
2012,05,26,14,06,25.00
2012,05,26,14,07,25.00
2012,05,26,14,08,25.10
2012,05,26,14,09,25.20
2012,05,26,14,10,25.30
2012,05,26,14,11,25.50
2012,05,26,14,12,25.70
2012,05,26,14,13,25.90
2012,05,26,14,14,25.90
2012,05,26,14,15,25.90
2012,05,26,14,16,25.80
2012,05,26,14,17,25.80
2012,05,26,14,18,25.90
2012,05,26,14,19,25.90
2012,05,26,14,20,25.80
2012,05,26,14,21,25.70
2012,05,26,14,22,25.60
2012,05,26,14,23,25.50
2012,05,26,14,24,25.50
2012,05,26,14,25,25.50
2012,05,26,14,26,25.30
2012,05,26,14,27,25.30
2012,05,26,14,28,25.30
2012,05,26,14,29,25.40
2012,05,26,14,30,25.30
2012,05,26,14,31,25.30
2012,05,26,14,32,25.30
2012,05,26,14,33,25.20
2012,05,26,14,34,25.20
2012,05,26,14,35,25.20
2012,05,26,14,36,25.20
2012,05,26,14,37,25.20
2012,05,26,14,38,25.20
2012,05,26,14,39,25.30
2012,05,26,14,40,25.30
2012,05,26,14,41,25.40
2012,05,26,14,42,25.50
2012,05,26,14,43,25.60
2012,05,26,14,44,25.70
2012,05,26,14,45,25.80
2012,05,26,14,46,25.90
2012,05,26,14,47,25.80
2012,05,26,14,48,25.70
2012,05,26,14,49,25.70
2012,05,26,14,50,25.70
2012,05,26,14,51,25.60
2012,05,26,14,52,25.50
2012,05,26,14,53,25.50
2012,05,26,14,54,25.40
2012,05,26,14,55,25.30
2012,05,26,14,56,25.30
2012,05,26,14,57,25.30
2012,05,26,14,58,25.30
2012,05,26,14,59,25.40
2012,05,26,15,00,25.50
2012,05,26,15,01,25.50
2012,05,26,15,02,25.50
2012,05,26,15,03,25.50
2012,05,26,15,04,25.50
2012,05,26,15,05,25.40
2012,05,26,15,06,25.40
2012,05,26,15,07,25.40
2012,05,26,15,08,25.40
2012,05,26,15,09,25.40
2012,05,26,15,10,25.50
2012,05,26,15,11,25.60
2012,05,26,15,12,25.70
2012,05,26,15,13,25.70
2012,05,26,15,14,25.80
2012,05,26,15,15,25.80
2012,05,26,15,16,25.80
2012,05,26,15,17,25.80
2012,05,26,15,18,25.70
2012,05,26,15,19,25.60
2012,05,26,15,20,25.70
2012,05,26,15,21,25.70
2012,05,26,15,22,25.50
2012,05,26,15,23,25.40
2012,05,26,15,24,25.40
2012,05,26,15,25,25.30
2012,05,26,15,26,25.30
2012,05,26,15,27,25.10
2012,05,26,15,28,25.00
2012,05,26,15,29,25.00
2012,05,26,15,30,24.90
2012,05,26,15,31,24.80
2012,05,26,15,32,24.80
2012,05,26,15,33,24.90
2012,05,26,15,34,25.00
2012,05,26,15,35,25.10
2012,05,26,15,36,25.20
2012,05,26,15,37,25.30
2012,05,26,15,38,25.40
2012,05,26,15,39,25.50
2012,05,26,15,40,25.60
2012,05,26,15,41,25.70
2012,05,26,15,42,25.80
2012,05,26,15,43,25.90
2012,05,26,15,44,25.90
2012,05,26,15,45,25.90
2012,05,26,15,46,26.00
2012,05,26,15,47,25.90
2012,05,26,15,48,26.00
2012,05,26,15,49,26.10
2012,05,26,15,50,26.20
2012,05,26,15,51,26.10
2012,05,26,15,52,26.00
2012,05,26,15,53,25.90
2012,05,26,15,54,25.90
2012,05,26,15,55,26.00
2012,05,26,15,56,26.00
2012,05,26,15,57,26.10
2012,05,26,15,58,26.10
2012,05,26,15,59,26.20
2012,05,26,16,00,26.30
2012,05,26,16,01,26.30
2012,05,26,16,02,26.40
2012,05,26,16,03,26.40
2012,05,26,16,04,26.50
2012,05,26,16,05,26.60
2012,05,26,16,06,26.60
2012,05,26,16,07,26.60
2012,05,26,16,08,26.60
2012,05,26,16,09,26.60
2012,05,26,16,10,26.50
2012,05,26,16,11,26.50
2012,05,26,16,12,26.40
2012,05,26,16,13,26.50
2012,05,26,16,14,26.50
2012,05,26,16,15,26.50
2012,05,26,16,16,26.50
2012,05,26,16,17,26.50
2012,05,26,16,18,26.50
2012,05,26,16,19,26.60
2012,05,26,16,20,26.70
2012,05,26,16,21,26.90
2012,05,26,16,22,26.90
2012,05,26,16,23,26.90
2012,05,26,16,24,26.90
2012,05,26,16,25,27.00
2012,05,26,16,26,27.00
2012,05,26,16,27,27.10
2012,05,26,16,28,27.30
2012,05,26,16,29,27.50
2012,05,26,16,30,27.50
2012,05,26,16,31,27.50
2012,05,26,16,32,27.40
2012,05,26,16,33,27.30
2012,05,26,16,34,27.20
2012,05,26,16,35,27.10
2012,05,26,16,36,27.00
2012,05,26,16,37,26.90
2012,05,26,16,38,26.80
2012,05,26,16,39,26.70
2012,05,26,16,40,26.60
2012,05,26,16,41,26.60
2012,05,26,16,42,26.50
2012,05,26,16,43,26.50
2012,05,26,16,44,26.50
2012,05,26,16,45,26.50
2012,05,26,16,46,26.50
2012,05,26,16,47,26.50
2012,05,26,16,48,26.60
2012,05,26,16,49,26.60
2012,05,26,16,50,26.60
2012,05,26,16,51,26.50
2012,05,26,16,52,26.50
2012,05,26,16,53,26.50
2012,05,26,16,54,26.50
2012,05,26,16,55,26.50
2012,05,26,16,56,26.50
2012,05,26,16,57,26.40
2012,05,26,16,58,26.30
2012,05,26,16,59,26.30
2012,05,26,17,00,26.30
2012,05,26,17,01,26.30
2012,05,26,17,02,26.30
2012,05,26,17,03,26.30
2012,05,26,17,04,26.20
2012,05,26,17,05,26.10
2012,05,26,17,06,26.00
2012,05,26,17,07,25.90
2012,05,26,17,08,25.90
2012,05,26,17,09,25.90
2012,05,26,17,10,25.90
2012,05,26,17,11,25.90
2012,05,26,17,12,25.80
2012,05,26,17,13,25.80
2012,05,26,17,14,25.90
2012,05,26,17,15,25.90
2012,05,26,17,16,25.90
2012,05,26,17,17,25.90
2012,05,26,17,18,26.00
2012,05,26,17,19,26.10
2012,05,26,17,20,26.10
2012,05,26,17,21,26.10
2012,05,26,17,22,26.10
2012,05,26,17,23,26.10